EW4235 Weather Reports


Display with metric or nautical units.
time (UTC)temp
F
wind
direction
speed
MPH
gust
MPH
rain 1hr
in
rain 24hr
in
rain mn
in
humidity
%
barometer
mb
20180523142933 75 295 1.0 6.0 0.00 0.64 0.01 74 1016.0
20180523142433 75 263 2.0 6.0 0.00 0.64 0.01 74 1016.1
20180523141934 75 17 2.0 6.0 0.00 0.64 0.01 75 1016.2
20180523141432 75 290 2.0 5.0 0.00 0.64 0.01 75 1016.1
20180523140932 74 295 2.0 6.0 0.00 0.64 0.01 76 1016.2
20180523140431 74 332 1.0 6.0 0.00 0.64 0.01 77 1016.1
20180523135932 74 345 1.0 5.0 0.00 0.64 0.01 80 1016.0
20180523135431 73 290 1.0 4.0 0.00 0.64 0.01 78 1016.0
20180523134932 73 340 1.0 3.0 0.00 0.64 0.01 82 1016.0
20180523134432 73 297 1.0 3.0 0.00 0.64 0.01 80 1016.0
20180523133930 72 295 1.0 2.0 0.00 0.64 0.01 81 1016.0
20180523133432 72 289 1.0 2.0 0.00 0.64 0.01 83 1016.0
20180523132931 72 305 1.0 2.0 0.00 0.64 0.01 83 1016.0
20180523132431 72 60 1.0 2.0 0.00 0.64 0.01 85 1016.0
20180523131931 72 275 1.0 2.0 0.00 0.64 0.01 85 1015.9
20180523131432 71 312 0.0 2.0 0.00 0.64 0.01 85 1015.9
20180523130932 71 30 0.0 1.0 0.00 0.64 0.01 87 1015.9
20180523130432 71 5 1.0 7.0 0.00 0.64 0.01 86 1015.8
20180523125932 71 302 1.0 7.0 0.00 0.64 0.01 86 1015.8
20180523125430 71 276 0.0 2.0 0.00 0.64 0.01 89 1015.8
20180523124928 70 276 1.0 5.0 0.00 0.64 0.01 88 1015.8
20180523124428 70 297 2.0 5.0 0.00 0.64 0.01 89 1015.8
20180523123929 70 286 1.0 3.0 0.00 0.64 0.01 93 1015.7
20180523123429 69 295 1.0 3.0 0.00 0.64 0.01 96 1015.7
20180523122928 69 301 1.0 3.0 0.00 0.64 0.01 98 1015.7
20180523122430 68 304 0.0 1.0 0.00 0.64 0.01 98 1015.6
20180523121929 68 304 0.0 1.0 0.00 0.64 0.01 98 1015.6
20180523121429 68 304 0.0 2.0 0.00 0.64 0.01 98 1015.5
20180523120929 68 303 0.0 2.0 0.00 0.65 0.01 99 1015.6
20180523120429 68 293 0.0 2.0 0.00 0.67 0.01 99 1015.6
20180523115929 67 293 0.0 2.0 0.00 0.67 0.01 99 1015.4
20180523115429 68 269 0.0 1.0 0.00 0.67 0.01 99 1015.5
20180523114931 67 269 0.0 1.0 0.00 0.67 0.01 99 1015.4
20180523114429 67 269 0.0 1.0 0.00 0.67 0.01 99 1015.5
20180523113930 67 269 0.0 0.0 0.00 0.67 0.01 99 1015.4
20180523113428 67 269 0.0 1.0 0.00 0.67 0.01 99 1015.3
20180523112930 67 269 0.0 1.0 0.00 0.67 0.01 99 1015.4
20180523112429 66 269 0.0 1.0 0.00 0.67 0.01 99 1015.3
20180523111930 66 269 0.0 1.0 0.00 0.67 0.01 99 1015.2
20180523111428 65 269 0.0 0.0 0.00 0.67 0.01 99 1015.2
20180523110930 65 269 0.0 0.0 0.00 0.67 0.01 98 1015.0
20180523110429 65 269 0.0 0.0 0.00 0.67 0.01 98 1014.9
20180523105931 65 269 0.0 4.0 0.00 0.67 0.01 98 1014.9
20180523105429 65 269 0.0 4.0 0.00 0.67 0.01 98 1014.9
20180523104928 64 269 0.0 0.0 0.00 0.67 0.01 98 1014.8
20180523104428 65 269 0.0 0.0 0.00 0.67 0.01 98 1014.8
20180523103930 65 269 0.0 0.0 0.00 0.67 0.01 98 1014.6
20180523103428 65 269 0.0 0.0 0.00 0.67 0.01 98 1014.5
20180523102930 65 269 0.0 0.0 0.00 0.67 0.01 98 1014.4
20180523102429 65 269 0.0 0.0 0.00 0.67 0.01 98 1014.4
20180523101929 65 269 0.0 0.0 0.00 0.67 0.01 98 1014.3
20180523101430 65 269 0.0 0.0 0.00 0.67 0.01 98 1014.2
20180523100930 65 269 0.0 0.0 0.00 0.67 0.01 98 1014.1
20180523100429 65 269 0.0 0.0 0.00 0.67 0.01 98 1014.0
20180523095930 65 269 0.0 0.0 0.00 0.67 0.01 98 1013.9
20180523095428 65 269 0.0 0.0 0.00 0.67 0.01 98 1013.9
20180523094929 65 269 0.0 0.0 0.00 0.67 0.01 98 1013.9
20180523094428 65 269 0.0 0.0 0.00 0.67 0.01 98 1013.7
20180523093928 65 269 0.0 0.0 0.00 0.67 0.01 98 1013.7
20180523093428 65 269 0.0 0.0 0.00 0.67 0.01 98 1013.7
20180523092926 65 269 0.0 0.0 0.00 0.67 0.01 98 1013.7
20180523092426 65 269 0.0 0.0 0.00 0.67 0.01 98 1013.7
20180523091426 65 269 0.0 0.0 0.00 0.67 0.01 98 1013.6
20180523090928 65 269 0.0 0.0 0.00 0.67 0.01 98 1013.5
20180523090425 65 269 0.0 0.0 0.00 0.67 0.01 98 1013.5
20180523085925 66 269 0.0 0.0 0.00 0.67 0.01 98 1013.4
20180523085423 66 269 0.0 0.0 0.00 0.67 0.01 98 1013.4
20180523084923 66 269 0.0 0.0 0.00 0.67 0.01 98 1013.6
20180523084423 66 269 0.0 0.0 0.00 0.67 0.01 98 1013.7
20180523083922 66 269 0.0 0.0 0.00 0.67 0.01 98 1013.6
20180523083423 66 269 0.0 0.0 0.00 0.67 0.01 98 1013.6
20180523082922 66 269 0.0 0.0 0.00 0.67 0.01 98 1013.6
20180523082423 66 269 0.0 0.0 0.00 0.67 0.01 98 1013.5
20180523081922 66 269 0.0 0.0 0.00 0.67 0.01 98 1013.5
20180523081423 66 269 0.0 0.0 0.00 0.67 0.01 98 1013.5
20180523080923 66 269 0.0 0.0 0.00 0.67 0.01 98 1013.4
20180523080420 66 269 0.0 0.0 0.00 0.67 0.01 98 1013.3
20180523075918 66 269 0.0 0.0 0.00 0.67 0.01 98 1013.3
20180523075418 66 269 0.0 0.0 0.00 0.67 0.01 98 1013.2
20180523074914 66 269 0.0 0.0 0.00 0.67 0.01 98 1013.3
20180523074415 67 269 0.0 0.0 0.00 0.67 0.01 98 1013.2
20180523073914 67 269 0.0 0.0 0.00 0.67 0.01 98 1013.3
20180523073414 67 269 0.0 0.0 0.00 0.67 0.01 98 1013.4
20180523072915 67 269 0.0 0.0 0.00 0.67 0.01 98 1013.4
20180523072413 67 269 0.0 0.0 0.00 0.67 0.01 98 1013.3
20180523071914 67 269 0.0 0.0 0.00 0.67 0.01 98 1013.4
20180523071413 67 269 0.0 0.0 0.00 0.67 0.01 98 1013.3
20180523070913 67 269 0.0 0.0 0.00 0.67 0.01 98 1013.3
20180523070412 67 269 0.0 0.0 0.00 0.67 0.01 98 1013.4
20180523065912 67 269 0.0 0.0 0.00 0.67 0.01 98 1013.3
20180523065412 67 269 0.0 0.0 0.00 0.67 0.01 98 1013.2
20180523064912 67 269 0.0 0.0 0.00 0.67 0.01 98 1013.2
20180523064412 67 269 0.0 0.0 0.00 0.67 0.01 98 1013.5
20180523063913 67 269 0.0 0.0 0.01 0.67 0.01 98 1013.9
20180523063410 67 269 0.0 0.0 0.01 0.67 0.01 98 1013.6
20180523062911 67 269 0.0 0.0 0.01 0.67 0.01 98 1013.7
20180523062411 67 269 0.0 0.0 0.01 0.67 0.01 98 1014.0
20180523061910 67 269 0.0 0.0 0.01 0.67 0.01 98 1014.1
20180523061409 67 269 0.0 0.0 0.01 0.67 0.01 98 1013.9
20180523060911 67 269 0.0 0.0 0.01 0.67 0.01 98 1013.7
20180523060410 67 269 0.0 1.0 0.01 0.67 0.01 98 1013.5
20180523055911 67 269 0.0 1.0 0.01 0.67 0.01 98 1013.4
20180523055407 67 274 1.0 2.0 0.01 0.67 0.01 98 1013.1
20180523054905 67 261 1.0 3.0 0.01 0.67 0.01 98 1013.0
20180523054404 67 248 1.0 3.0 0.01 0.67 0.01 98 1012.9
20180523053904 67 128 1.0 2.0 0.00 0.66 0.00 98 1013.0
20180523053404 67 226 0.0 2.0 0.00 0.66 0.00 98 1013.1
20180523052904 67 218 0.0 1.0 0.00 0.66 0.00 98 1013.3
20180523052406 67 204 0.0 1.0 0.00 0.66 0.00 98 1013.5
20180523051905 67 250 0.0 1.0 0.00 0.66 0.00 98 1013.8
20180523051405 67 249 0.0 1.0 0.00 0.66 0.00 98 1014.0
20180523050904 66 224 0.0 0.0 0.00 0.66 0.00 98 1014.1
20180523050402 66 224 0.0 0.0 0.00 0.66 0.00 98 1014.2
20180523045903 66 224 0.0 0.0 0.00 0.66 0.00 98 1014.4
20180523045404 66 224 0.0 0.0 0.00 0.66 0.00 98 1014.5
20180523044904 66 224 0.0 0.0 0.00 0.66 0.00 98 1014.6
20180523044402 66 224 0.0 0.0 0.00 0.66 0.00 98 1014.7
20180523043901 67 224 0.0 0.0 0.00 0.66 0.00 98 1014.8
20180523043403 67 224 0.0 0.0 0.00 0.66 0.00 98 1014.9
20180523042906 67 224 0.0 1.0 0.00 0.66 0.00 98 1014.9
20180523042402 67 224 0.0 1.0 0.00 0.66 0.00 97 1014.9
20180523041903 67 224 0.0 1.0 0.00 0.66 0.00 97 1015.0
20180523041402 67 224 0.0 1.0 0.00 0.66 0.00 97 1015.0
20180523040900 67 224 0.0 1.0 0.00 0.66 0.00 97 1015.0
20180523040357 67 210 0.0 0.0 0.00 0.66 0.00 97 1015.0
20180523035858 67 210 0.0 0.0 0.00 0.66 0.66 97 1015.1
20180523035358 67 210 0.0 0.0 0.00 0.66 0.66 97 1015.2
20180523034858 67 210 0.0 0.0 0.00 0.66 0.66 97 1015.3
20180523034357 67 210 0.0 3.0 0.00 0.66 0.66 97 1015.5
20180523033858 67 210 0.0 3.0 0.01 0.66 0.66 97 1015.6
20180523033359 67 252 0.0 3.0 0.01 0.66 0.66 97 1015.8
20180523032859 67 256 0.0 1.0 0.01 0.66 0.66 97 1015.6
20180523032358 67 256 0.0 3.0 0.01 0.66 0.66 97 1015.6
20180523031857 67 243 0.0 3.0 0.01 0.66 0.66 97 1015.6
20180523031357 67 259 0.0 1.0 0.01 0.66 0.66 97 1015.3
20180523030857 67 265 0.0 2.0 0.01 0.66 0.66 97 1015.4
20180523030358 68 241 0.0 2.0 0.02 0.66 0.66 97 1015.3
20180523025857 68 248 0.0 2.0 0.02 0.66 0.66 97 1015.4
20180523025358 68 248 0.0 1.0 0.02 0.66 0.66 97 1015.5
20180523024858 68 266 0.0 3.0 0.02 0.66 0.66 97 1015.6
20180523024358 68 255 0.0 3.0 0.02 0.66 0.66 97 1015.8
20180523023900 68 252 0.0 2.0 0.01 0.65 0.66 97 1015.8
20180523023401 68 208 0.0 2.0 0.01 0.65 0.65 97 1015.9
20180523022858 68 245 0.0 2.0 0.01 0.65 0.65 97 1016.3
20180523022358 68 231 0.0 1.0 0.01 0.65 0.65 97 1016.3
20180523021859 68 231 0.0 1.0 0.01 0.65 0.65 97 1016.3
20180523021358 68 231 0.0 0.0 0.01 0.65 0.65 97 1016.2
20180523020857 68 231 0.0 1.0 0.01 0.65 0.65 97 1016.3
20180523020358 68 231 0.0 1.0 0.00 0.64 0.64 97 1016.2
20180523015857 68 231 0.0 1.0 0.00 0.64 0.64 97 1016.2
20180523015358 68 203 0.0 0.0 0.00 0.64 0.64 97 1016.0
20180523014858 68 202 0.0 0.0 0.00 0.64 0.64 97 1016.0
20180523014355 68 203 0.0 0.0 0.00 0.64 0.64 97 1016.0
20180523013856 68 202 0.0 0.0 0.00 0.64 0.64 97 1015.9
20180523013355 68 202 0.0 0.0 0.00 0.64 0.64 97 1015.9
20180523012855 68 202 0.0 0.0 0.00 0.64 0.64 97 1015.9
20180523012355 68 202 0.0 0.0 0.00 0.64 0.64 97 1015.9
20180523011855 69 202 0.0 0.0 0.00 0.64 0.64 97 1015.7
20180523011353 69 202 0.0 0.0 0.00 0.64 0.64 97 1015.5
20180523010853 69 203 0.0 0.0 0.00 0.64 0.64 97 1015.6
20180523010355 69 203 0.0 0.0 0.00 0.64 0.64 97 1015.5
20180523005853 69 203 0.0 0.0 0.00 0.64 0.64 97 1015.4
20180523005353 69 203 0.0 0.0 0.00 0.64 0.64 97 1015.6
20180523004853 69 203 0.0 0.0 0.00 0.64 0.64 97 1015.7
20180523004353 69 201 0.0 1.0 0.00 0.64 0.64 97 1015.6
20180523003854 69 201 0.0 1.0 0.00 0.64 0.64 97 1015.5
20180523003354 69 94 0.0 1.0 0.00 0.64 0.64 97 1015.5
20180523002855 69 94 0.0 0.0 0.00 0.64 0.64 97 1015.3
20180523002353 69 94 0.0 0.0 0.00 0.64 0.64 97 1015.3
20180523001854 69 94 0.0 0.0 0.00 0.64 0.64 97 1015.2
20180523001354 70 94 0.0 0.0 0.00 0.64 0.64 97 1015.2
20180523000855 70 94 0.0 0.0 0.00 0.64 0.64 97 1015.2
20180523000353 70 94 0.0 0.0 0.00 0.64 0.64 97 1015.3
20180522235853 70 94 0.0 0.0 0.00 0.64 0.64 97 1015.1
20180522235352 70 94 0.0 0.0 0.00 0.64 0.64 97 1015.1
20180522234854 70 94 0.0 0.0 0.00 0.64 0.64 97 1015.2
20180522234351 70 94 0.0 0.0 0.00 0.64 0.64 97 1015.2
20180522233852 71 94 0.0 0.0 0.00 0.64 0.64 97 1015.1
20180522233351 71 94 0.0 0.0 0.00 0.64 0.64 97 1015.2
20180522232850 71 94 0.0 0.0 0.00 0.64 0.64 97 1015.1
20180522232349 71 94 0.0 0.0 0.00 0.64 0.64 97 1015.1
20180522231851 71 94 0.0 0.0 0.00 0.64 0.64 97 1015.2
20180522231350 71 94 0.0 0.0 0.00 0.64 0.64 97 1015.3
20180522230848 71 94 0.0 0.0 0.00 0.64 0.64 97 1015.3
20180522230349 71 94 0.0 1.0 0.00 0.64 0.64 97 1015.4
20180522225849 70 94 0.0 1.0 0.00 0.64 0.64 97 1015.6
20180522225347 70 94 0.0 0.0 0.01 0.64 0.64 97 1015.8
20180522224848 70 94 0.0 0.0 0.01 0.64 0.64 96 1015.8
20180522224347 70 93 0.0 0.0 0.02 0.64 0.64 96 1015.8
20180522223847 70 93 0.0 0.0 0.04 0.64 0.64 96 1015.7
20180522223348 70 94 0.0 0.0 0.05 0.64 0.64 97 1015.7
20180522222847 69 93 0.0 0.0 0.06 0.64 0.64 96 1015.7
20180522222347 69 93 0.0 1.0 0.07 0.64 0.64 96 1015.8
20180522221846 69 93 0.0 1.0 0.09 0.64 0.64 96 1015.9
20180522221345 69 93 0.0 0.0 0.09 0.64 0.64 96 1015.9
20180522220845 69 93 0.0 0.0 0.09 0.64 0.64 96 1015.9
20180522220345 69 93 0.0 1.0 0.10 0.64 0.64 96 1015.7
20180522215844 69 93 0.0 1.0 0.15 0.64 0.64 96 1015.6
20180522215346 69 93 0.0 1.0 0.18 0.63 0.64 96 1015.5
20180522214845 69 93 0.0 1.0 0.27 0.63 0.63 96 1015.5
20180522214345 69 94 0.0 1.0 0.42 0.62 0.62 95 1015.7
20180522213845 69 93 0.0 0.0 0.51 0.60 0.60 95 1015.9
20180522213346 69 93 0.0 0.0 0.52 0.59 0.59 95 1016.0
20180522212845 69 93 0.0 0.0 0.51 0.58 0.58 94 1015.9
20180522212344 70 93 0.0 0.0 0.50 0.57 0.57 94 1015.8
20180522211844 70 93 0.0 1.0 0.48 0.55 0.56 93 1015.9
20180522211343 70 92 0.0 1.0 0.48 0.55 0.55 93 1016.0
20180522210844 70 92 0.0 1.0 0.48 0.55 0.55 93 1016.0
20180522210345 71 194 0.0 1.0 0.47 0.54 0.54 92 1016.0
20180522205844 71 195 1.0 2.0 0.42 0.49 0.50 91 1015.9
20180522205344 72 136 1.0 2.0 0.38 0.45 0.45 90 1016.3
20180522204844 73 175 0.0 2.0 0.29 0.36 0.36 86 1015.9
20180522204345 74 352 0.0 1.0 0.13 0.20 0.24 84 1015.9
20180522203844 76 359 0.0 2.0 0.02 0.09 0.09 82 1015.9
20180522203341 78 283 0.0 2.0 0.00 0.07 0.07 81 1015.5
20180522202842 78 34 0.0 2.0 0.00 0.07 0.07 80 1015.2
20180522202342 79 93 0.0 1.0 0.00 0.07 0.07 78 1015.0
20180522201848 79 93 0.0 1.0 0.00 0.07 0.07 77 1014.9
20180522201342 79 93 0.0 2.0 0.00 0.07 0.07 76 1014.8
20180522200842 80 93 0.0 2.0 0.00 0.07 0.07 77 1014.9
20180522200341 80 91 0.0 1.0 0.00 0.07 0.07 77 1015.1
20180522195840 80 93 1.0 3.0 0.00 0.07 0.07 78 1015.3
20180522195339 80 88 1.0 3.0 0.00 0.07 0.07 76 1015.3
20180522194840 80 98 1.0 3.0 0.00 0.07 0.07 75 1015.3
20180522194340 80 245 0.0 2.0 0.00 0.07 0.07 74 1015.3
20180522193840 80 109 0.0 2.0 0.00 0.07 0.07 75 1015.3
20180522193339 80 262 1.0 2.0 0.00 0.07 0.07 75 1015.3
20180522192839 80 258 0.0 2.0 0.00 0.07 0.07 75 1015.4
20180522192340 80 243 0.0 2.0 0.00 0.07 0.07 74 1015.5
20180522191841 80 206 0.0 1.0 0.00 0.07 0.07 74 1015.5
20180522191340 80 207 0.0 1.0 0.00 0.07 0.07 76 1015.6
20180522190839 80 269 0.0 2.0 0.00 0.07 0.07 75 1015.7
20180522190338 80 142 0.0 2.0 0.00 0.07 0.07 76 1015.7
20180522185836 80 348 0.0 2.0 0.00 0.07 0.07 74 1015.9
20180522185338 79 313 0.0 2.0 0.00 0.07 0.07 75 1016.0
20180522184838 79 203 1.0 3.0 0.00 0.07 0.07 77 1016.1
20180522184336 78 199 1.0 3.0 0.00 0.07 0.07 77 1016.2
20180522183836 78 279 1.0 2.0 0.00 0.07 0.07 79 1016.3
20180522183335 78 278 1.0 2.0 0.00 0.07 0.07 79 1016.5
20180522182836 77 285 1.0 2.0 0.00 0.07 0.07 81 1016.6
20180522182334 77 269 1.0 2.0 0.00 0.07 0.07 80 1016.8
20180522181835 77 287 1.0 3.0 0.00 0.07 0.07 80 1017.0
20180522181334 77 250 1.0 3.0 0.00 0.07 0.07 80 1017.1
20180522180833 77 129 0.0 1.0 0.00 0.07 0.07 82 1017.2
20180522180333 76 258 0.0 1.0 0.00 0.07 0.07 84 1017.4
20180522175834 76 266 0.0 2.0 0.00 0.07 0.07 86 1017.5
20180522175333 75 266 1.0 2.0 0.00 0.07 0.07 85 1017.6
20180522174833 74 236 0.0 2.0 0.00 0.07 0.07 85 1017.6
20180522174332 74 257 0.0 1.0 0.00 0.07 0.07 86 1017.8
20180522173833 74 228 0.0 1.0 0.00 0.07 0.07 88 1017.8
20180522173333 73 226 0.0 1.0 0.00 0.07 0.07 87 1018.0
20180522172830 73 225 0.0 2.0 0.00 0.07 0.07 87 1018.1
20180522172331 73 226 0.0 2.0 0.00 0.07 0.07 87 1018.2
20180522171830 73 232 0.0 3.0 0.00 0.07 0.07 87 1018.3
20180522171328 72 196 0.0 3.0 0.00 0.07 0.07 89 1018.4
20180522170828 72 243 0.0 2.0 0.00 0.07 0.07 90 1018.4
20180522170326 72 234 0.0 1.0 0.00 0.07 0.07 90 1018.4
20180522165827 71 256 0.0 1.0 0.00 0.07 0.07 91 1018.4
20180522165328 71 262 0.0 0.0 0.00 0.07 0.07 92 1018.6
20180522164828 71 262 0.0 1.0 0.00 0.07 0.07 92 1018.6
20180522164326 70 262 0.0 1.0 0.00 0.07 0.07 93 1018.6
20180522163826 70 262 0.0 1.0 0.00 0.07 0.07 93 1018.6
20180522163324 70 262 0.0 1.0 0.00 0.07 0.07 92 1018.8
20180522162823 69 262 0.0 1.0 0.00 0.07 0.07 92 1018.8
20180522162320 69 262 0.0 1.0 0.00 0.07 0.07 92 1018.8
20180522161821 69 262 0.0 0.0 0.00 0.07 0.07 93 1018.8
20180522161322 69 262 0.0 2.0 0.00 0.07 0.07 94 1018.8
20180522160820 69 262 0.0 2.0 0.01 0.07 0.07 93 1018.8
20180522160320 69 243 0.0 1.0 0.01 0.07 0.07 94 1018.7
20180522155820 68 243 0.0 1.0 0.03 0.07 0.07 94 1018.7
20180522155319 68 254 0.0 1.0 0.04 0.07 0.07 94 1018.8
20180522154818 68 255 0.0 1.0 0.04 0.07 0.07 95 1018.8
20180522154319 68 255 0.0 1.0 0.04 0.07 0.07 95 1018.8
20180522153819 68 114 0.0 0.0 0.04 0.07 0.07 95 1018.8
20180522153319 67 114 0.0 0.0 0.04 0.07 0.07 95 1018.7
20180522152820 67 114 0.0 1.0 0.04 0.07 0.07 95 1018.7
20180522152319 67 114 0.0 1.0 0.04 0.07 0.07 95 1018.8
20180522151820 67 30 0.0 1.0 0.04 0.07 0.07 95 1019.0
20180522151318 67 30 0.0 1.0 0.04 0.07 0.07 94 1019.2
20180522150820 66 314 0.0 1.0 0.03 0.06 0.06 94 1019.3
20180522150319 67 314 0.0 1.0 0.03 0.06 0.06 93 1019.6
20180522145819 67 108 0.0 0.0 0.01 0.04 0.05 93 1019.8
20180522145320 67 109 0.0 0.0 0.00 0.03 0.03 92 1019.5
20180522144819 67 108 0.0 0.0 0.00 0.03 0.03 93 1019.5
20180522144318 67 108 0.0 0.0 0.00 0.03 0.03 92 1019.4
20180522143820 67 108 0.0 0.0 0.00 0.03 0.03 93 1019.4
20180522143318 67 108 0.0 0.0 0.00 0.03 0.03 93 1019.4